Content
SEND FEEDBACK

Daily
Averages
Monthly
Summary
United States of America

OAKES, NORTH DAKOTA


Home > North America > United States > North Dakota
Elevation: 1315 feet     Latitude: 46 08N     Longitude: 098 05W

WEATHER
 
SELECT A DAY
Number of Records: 73,604;   Date Range: 5/13/11 - 6/4/14
 
SHARE

PRINT THIS DATA

[ ← Previous Day ]
WEATHER ALMANAC - MAY 14, 2014
[ Next Day → ]
[ °C ]   °F
Weather ElementAverageHighLow
Temperature39.7 °F46.4 °F (11:55 am)32 °F (1:35 am)
Dewpoint29.9 °F35.6 °F (7:55 am)24.8 °F (1:35 pm)
Humidity71.3 %100 % (1:35 am)43 % (1:35 pm)
Barometer30.27 in30.32 in (11:55 pm)30.19 in (12:35 am)
Wind Speed11.3 mph20.7 mph (11:35 am)
Wind Gust29.9 mph (11:35 am)
Weather ElementAverage
Visibility10 mi
Wind DirectionWSW (244.8 °)

Weather ElementTotal
Precipitation---
Heating Degree Days25.8 (Base 65)
Averaged from 65 records on May 14, 2014
WEATHER CONDITIONS BREAKOUT
WIND DIRECTION BREAKOUT
WEATHER BY HOUR - MAY 14, 2014
[ °C ]   °F
Local TimeTemperatureDewpointHumidityBarometerVisibilityWind DirectionWind SpeedGust SpeedPrecipitationEventsConditions
12:35 AM35.6 °F32.0 °F87 %30.19 in10.0 miSW (220°)4.6 mphClear
12:55 AM35.6 °F32.0 °F87 %30.19 in10.0 miSW (230°)4.6 mphClear
1:15 AM33.8 °F32.0 °F93 %30.19 in10.0 miWSW (250°)3.5 mphClear
1:35 AM32.0 °F32.0 °F100 %30.19 in10.0 miWest (260°)4.6 mphClear
1:55 AM32.0 °F32.0 °F100 %30.19 in10.0 miWest (260°)3.5 mphClear
2:15 AM35.6 °F32.0 °F87 %30.19 in10.0 miWest (270°)4.6 mphClear
2:35 AM35.6 °F32.0 °F87 %30.19 in10.0 miWNW (300°)8.1 mphPartly Cloudy
2:55 AM35.6 °F32.0 °F87 %30.19 in10.0 miNW (310°)4.6 mphScattered Clouds
3:15 AM35.6 °F32.0 °F87 %30.20 in10.0 miNW (310°)5.8 mphScattered Clouds
3:35 AM32.0 °F32.0 °F100 %30.20 in10.0 miNNW (330°)4.6 mphPartly Cloudy
4:15 AM32.0 °F32.0 °F100 %30.21 in10.0 miNNW (330°)5.8 mphScattered Clouds
4:35 AM32.0 °F32.0 °F100 %30.21 in10.0 miNNW (340°)5.8 mphPartly Cloudy
4:55 AM32.0 °F32.0 °F100 %30.21 in10.0 miNorth (350°)6.9 mphPartly Cloudy
5:15 AM32.0 °F32.0 °F100 %30.22 in10.0 miNorth (360°)6.9 mphScattered Clouds
5:35 AM32.0 °F32.0 °F100 %30.22 in10.0 miNorth (350°)6.9 mphScattered Clouds
5:55 AM32.0 °F32.0 °F100 %30.23 in10.0 miNorth (360°)6.9 mphScattered Clouds
6:15 AM32.0 °F32.0 °F100 %30.24 in10.0 miNorth (350°)6.9 mphMostly Cloudy
6:35 AM32.0 °F32.0 °F100 %30.24 in10.0 miNorth (350°)6.9 mphScattered Clouds
7:15 AM33.8 °F32.0 °F93 %30.25 in10.0 miNorth (350°)6.9 mphPartly Cloudy
7:35 AM35.6 °F33.8 °F93 %30.26 in10.0 miNorth (360°)6.9 mphPartly Cloudy
7:55 AM35.6 °F35.6 °F100 %30.26 in10.0 miNorth (360°)11.5 mphPartly Cloudy
8:15 AM37.4 °F35.6 °F93 %30.26 in10.0 miNorth (350°)15.0 mphClear
8:35 AM39.2 °F33.8 °F81 %30.27 in10.0 miNorth (360°)15.0 mphClear
8:55 AM39.2 °F32.0 °F75 %30.27 in10.0 miNorth (10°)15.0 mphClear
10:15 AM42.8 °F32.0 °F66 %30.28 in10.0 miNNW (330°)18.4 mph23.0 mphClear
10:35 AM44.6 °F32.0 °F61 %30.28 in10.0 miNNW (330°)19.6 mph25.3 mphPartly Cloudy
10:55 AM44.6 °F30.2 °F57 %30.28 in10.0 miNNW (340°)16.1 mph26.5 mphScattered Clouds
11:15 AM44.6 °F28.4 °F53 %30.29 in10.0 miNNW (340°)16.1 mph27.6 mphScattered Clouds
11:35 AM44.6 °F28.4 °F53 %30.29 in10.0 miNNW (330°)20.7 mph29.9 mphMostly Cloudy
11:55 AM46.4 °F26.6 °F46 %30.29 in10.0 miNNW (340°)18.4 mph25.3 mphMostly Cloudy
12:15 PM46.4 °F28.4 °F50 %30.29 in10.0 miNNW (340°)17.3 mph26.5 mphMostly Cloudy
12:35 PM44.6 °F26.6 °F49 %30.29 in10.0 miNNW (330°)19.6 mph29.9 mphMostly Cloudy
12:55 PM46.4 °F26.6 °F46 %30.30 in10.0 miNNW (340°)19.6 mph24.2 mphMostly Cloudy
1:15 PM44.6 °F26.6 °F49 %30.30 in10.0 miNNW (340°)20.7 mph25.3 mphMostly Cloudy
1:35 PM46.4 °F24.8 °F43 %30.30 in10.0 miNorth (350°)20.7 mph26.5 mphOvercast
1:55 PM44.6 °F26.6 °F49 %30.30 in10.0 miNW (320°)19.6 mph25.3 mphOvercast
2:15 PM46.4 °F26.6 °F46 %30.30 in10.0 miNorth (360°)17.3 mph23.0 mphMostly Cloudy
2:35 PM44.6 °F26.6 °F49 %30.31 in10.0 miNorth (350°)16.1 mph20.7 mphOvercast
2:55 PM44.6 °F26.6 °F49 %30.31 in10.0 miNorth (350°)11.5 mphOvercast
3:15 PM46.4 °F26.6 °F46 %30.30 in10.0 miNNW (330°)12.7 mph21.9 mphOvercast
3:35 PM44.6 °F28.4 °F53 %30.30 in10.0 miNorth (360°)13.8 mph21.9 mphOvercast
3:55 PM46.4 °F28.4 °F50 %30.30 in10.0 miNorth (10°)15.0 mphOvercast
4:15 PM46.4 °F26.6 °F46 %30.30 in10.0 miNorth (350°)8.1 mph17.3 mphOvercast
4:35 PM46.4 °F28.4 °F50 %30.29 in10.0 miNorth (350°)11.5 mph16.1 mphOvercast
4:55 PM46.4 °F28.4 °F50 %30.29 in10.0 miNNE (30°)16.1 mphMostly Cloudy
5:15 PM46.4 °F28.4 °F50 %30.29 in10.0 miNorth (10°)16.1 mph20.7 mphMostly Cloudy
5:35 PM46.4 °F28.4 °F50 %30.28 in10.0 miNorth (10°)13.8 mphScattered Clouds
5:55 PM46.4 °F28.4 °F50 %30.28 in10.0 miNorth (360°)17.3 mphPartly Cloudy
6:15 PM46.4 °F28.4 °F50 %30.28 in10.0 miNorth (10°)15.0 mph18.4 mphMostly Cloudy
6:55 PM46.4 °F28.4 °F50 %30.28 in10.0 miNorth (360°)13.8 mphScattered Clouds
7:15 PM44.6 °F28.4 °F53 %30.28 in10.0 miNorth (350°)17.3 mphClear
7:35 PM44.6 °F28.4 °F53 %30.28 in10.0 miNorth (350°)16.1 mphClear
7:55 PM44.6 °F28.4 °F53 %30.28 in10.0 miNorth (10°)16.1 mphClear
8:15 PM42.8 °F28.4 °F57 %30.29 in10.0 miNorth (360°)11.5 mphClear
8:35 PM41.0 °F28.4 °F61 %30.29 in10.0 miNorth (10°)11.5 mphClear
8:55 PM41.0 °F28.4 °F61 %30.29 in10.0 miNorth (10°)10.4 mphClear
9:15 PM39.2 °F28.4 °F65 %30.30 in10.0 miNorth (10°)6.9 mphClear
9:35 PM37.4 °F28.4 °F70 %30.30 in10.0 miNNE (30°)8.1 mphClear
9:55 PM37.4 °F28.4 °F70 %30.31 in10.0 miNE (40°)8.1 mphClear
10:15 PM35.6 °F30.2 °F81 %30.31 in10.0 miNE (40°)6.9 mphClear
10:35 PM35.6 °F30.2 °F81 %30.31 in10.0 miNE (40°)5.8 mphClear
10:55 PM33.8 °F30.2 °F87 %30.31 in10.0 miNNE (30°)5.8 mphClear
11:15 PM32.0 °F30.2 °F93 %30.31 in10.0 miNorth (10°)4.6 mphClear
11:35 PM32.0 °F30.2 °F93 %30.31 in10.0 miNNE (20°)4.6 mphClear
11:55 PM32.0 °F30.2 °F93 %30.32 in10.0 miNorth (10°)4.6 mphClear
Hourly data recorded from K2D5, located miles away from Oakes, North Dakota







STORIES FROM OUR PARTNERS